Metropolis, IL

12:51 PM CDT on March 30, 2017 (GMT -0500)
Metropolis

Weather History for KM30 - December, 2012

Change the Weather History Date:

Tuesday, December 4, 2012

  Actual Average (KPAH) Record (KPAH)
Temperature  
Mean Temperature 55 °F -  
Max Temperature 67 °F 48 °F 74 °F (1998)
Min Temperature 43 °F 31 °F 12 °F (1942)
Degree Days  
Heating Degree Days 10    
Growing Degree Days 5 (Base 50)    
Moisture  
Dew Point 54 °F    
Average Humidity 84    
Maximum Humidity 100    
Minimum Humidity 67    
Precipitation  
Precipitation 0.16 in - - ()
Sea Level Pressure  
Sea Level Pressure 30.12 in    
Wind  
Wind Speed 9 mph (West)    
Max Wind Speed 18 mph    
Max Gust Speed 22 mph    
Visibility 10 miles    
Events Thunderstorm    
Averages and records for this station are not official NWS values.
T = Trace of Precipitation, MM = Missing Value Source: NWS Daily Summary

Daily Weather History Graph

Daily Weather History Graph

Search for Another Location

Airport or City:

Trip Planner

Search our weather history database for the weather conditions in past years. The results will help you decide how hot, cold, wet, or windy it might be!

Date:

Astronomy

Dec. 04, 2012 Rise Set
Actual Time 6:53 AM CST 4:37 PM CST
Civil Twilight 6:24 AM CST 5:06 PM CST
Nautical Twilight 5:52 AM CST 5:38 PM CST
Astronomical Twilight 5:20 AM CST 6:10 PM CST
Moon 10:19 PM CST (12/4) 10:51 AM CST (12/4)
Length of Visible Light 10h 41m
Length of Day
9h 44m
Waning Gibbous, 69% of the Moon is Illuminated
Dec 4
Waning Gibbous
Dec 6
Last Quarter
Dec 13
New
Dec 19
First Quarter
Dec 28
Full

Hourly Weather History & Observations

Time (CST) Temp. Windchill Dew Point Humidity Pressure Visibility Wind Dir Wind Speed Gust Speed Precip Events Conditions
12:15 AM 65.8 °F - 54.7 °F 67% 30.05 in 10.0 mi South 10.4 mph - N/A   Overcast
12:35 AM 65.7 °F - 54.9 °F 68% 30.05 in 10.0 mi South 13.8 mph 18.4 mph N/A   Overcast
12:55 AM 66.2 °F - 55.4 °F 68% 30.04 in 10.0 mi South 15.0 mph 20.7 mph N/A   Overcast
1:15 AM 66.2 °F - 55.6 °F 69% 30.04 in 10.0 mi South 13.8 mph - N/A   Mostly Cloudy
1:35 AM 66.4 °F - 55.8 °F 69% 30.04 in 10.0 mi South 12.7 mph 18.4 mph N/A   Overcast
1:55 AM 66.6 °F - 55.9 °F 69% 30.03 in 10.0 mi South 16.1 mph 21.9 mph N/A   Overcast
2:15 AM 66.7 °F - 56.3 °F 69% 30.04 in 10.0 mi South 11.5 mph 19.6 mph N/A   Overcast
2:35 AM 66.6 °F - 56.3 °F 69% 30.04 in 10.0 mi South 13.8 mph - N/A   Overcast
2:55 AM 66.7 °F - 56.5 °F 70% 30.04 in 10.0 mi South 11.5 mph 20.7 mph N/A   Overcast
3:15 AM 67.1 °F - 56.5 °F 69% 30.03 in 10.0 mi SSW 12.7 mph 20.7 mph N/A   Overcast
3:35 AM 66.7 °F - 56.7 °F 70% 30.03 in 10.0 mi SSW 12.7 mph 19.6 mph N/A   Overcast
3:55 AM 66.9 °F - 56.8 °F 70% 30.03 in 10.0 mi SSW 12.7 mph 18.4 mph N/A   Overcast
4:15 AM 66.7 °F - 57.0 °F 71% 30.04 in 10.0 mi SSW 11.5 mph 19.6 mph N/A   Overcast
4:35 AM 66.7 °F - 57.2 °F 71% 30.04 in 10.0 mi SSW 11.5 mph 17.3 mph N/A   Overcast
4:55 AM 66.4 °F - 57.2 °F 72% 30.04 in 10.0 mi SSW 6.9 mph - N/A   Overcast
5:15 AM 66.4 °F - 57.2 °F 72% 30.04 in 10.0 mi SSW 8.1 mph - N/A   Overcast
5:35 AM 66.4 °F - 57.2 °F 72% 30.04 in 10.0 mi South 8.1 mph - N/A   Overcast
5:55 AM 66.2 °F - 57.4 °F 73% 30.04 in 10.0 mi SSW 9.2 mph - N/A   Overcast
6:15 AM 66.4 °F - 57.6 °F 73% 30.05 in 10.0 mi SSW 6.9 mph - N/A   Overcast
6:35 AM 66.2 °F - 57.6 °F 74% 30.06 in 10.0 mi South 6.9 mph - N/A   Overcast
6:55 AM 65.5 °F - 57.2 °F 75% 30.06 in 10.0 mi South 5.8 mph - N/A   Overcast
7:15 AM 64.8 °F - 57.2 °F 76% 30.06 in 10.0 mi South 8.1 mph - N/A   Overcast
7:35 AM 64.8 °F - 57.2 °F 76% 30.06 in 10.0 mi South 8.1 mph - N/A   Overcast
7:55 AM 65.1 °F - 57.2 °F 75% 30.06 in 10.0 mi South 8.1 mph - N/A Thunderstorm Overcast
8:15 AM 65.3 °F - 57.4 °F 76% 30.06 in 10.0 mi SSW 8.1 mph - N/A   Overcast
8:55 AM 65.8 °F - 57.9 °F 76% 30.06 in 10.0 mi South 9.2 mph - N/A   Overcast
9:15 AM 66.4 °F - 58.1 °F 75% 30.07 in 10.0 mi SSW 11.5 mph - N/A Thunderstorm Overcast
9:35 AM 64.9 °F - 58.8 °F 81% 30.08 in 10.0 mi SW 8.1 mph - N/A   Overcast
9:55 AM 63.7 °F - 60.6 °F 90% 30.09 in 4.0 mi SW 8.1 mph - 0.02 in   Overcast
10:15 AM 62.8 °F - 62.8 °F 100% 30.10 in 5.0 mi West 3.5 mph - 0.03 in Thunderstorm Overcast
10:35 AM 63.0 °F - 63.0 °F 100% 30.09 in 3.0 mi Calm Calm - 0.12 in   Overcast
10:55 AM 64.0 °F - 64.0 °F 100% 30.08 in 10.0 mi West 4.6 mph - 0.13 in   Overcast
11:15 AM 64.4 °F - 64.4 °F 100% 30.07 in 10.0 mi West 3.5 mph - N/A   Overcast
11:35 AM 64.8 °F - 64.6 °F 99% 30.05 in 10.0 mi North 4.6 mph - N/A   Overcast
11:55 AM 64.4 °F - 63.7 °F 98% 30.05 in 10.0 mi NW 5.8 mph - N/A Thunderstorm Overcast
12:15 PM 63.1 °F - 62.6 °F 98% 30.08 in 10.0 mi NW 18.4 mph - N/A Thunderstorm Overcast
12:35 PM 58.8 °F - 58.8 °F 100% 30.08 in 5.0 mi NW 11.5 mph - N/A   Overcast
12:55 PM 59.0 °F - 58.6 °F 99% 30.06 in 10.0 mi North 9.2 mph - N/A   Overcast
1:15 PM 59.0 °F - 58.5 °F 98% 30.06 in 10.0 mi NNW 12.7 mph 16.1 mph N/A   Mostly Cloudy
1:35 PM 58.1 °F - 57.6 °F 98% 30.07 in 10.0 mi NNW 12.7 mph 18.4 mph N/A   Overcast
1:55 PM 57.9 °F - 57.4 °F 98% 30.09 in 10.0 mi NW 10.4 mph 17.3 mph N/A   Overcast
2:15 PM 56.5 °F - 56.1 °F 99% 30.10 in 10.0 mi NW 8.1 mph - N/A   Overcast
2:35 PM 56.3 °F - 56.3 °F 100% 30.11 in 10.0 mi NNW 8.1 mph - N/A   Overcast
2:55 PM 55.4 °F - 55.4 °F 100% 30.12 in 7.0 mi NNW 6.9 mph - N/A   Overcast
3:15 PM 55.2 °F - 55.2 °F 100% 30.13 in 10.0 mi NNW 9.2 mph - 0.01 in   Overcast
3:35 PM 55.0 °F - 55.0 °F 100% 30.15 in 10.0 mi NNW 6.9 mph - 0.01 in   Overcast
3:55 PM 54.7 °F - 54.7 °F 100% 30.16 in 7.0 mi NNW 9.2 mph - 0.01 in   Overcast
4:15 PM 54.9 °F - 54.7 °F 99% 30.16 in 10.0 mi North 13.8 mph 17.3 mph N/A   Overcast
4:35 PM 54.7 °F - 53.6 °F 96% 30.16 in 10.0 mi North 11.5 mph 18.4 mph N/A   Overcast
4:55 PM 54.7 °F - 53.6 °F 96% 30.16 in 10.0 mi North 10.4 mph - N/A   Overcast
5:35 PM 54.5 °F - 51.8 °F 91% 30.19 in 10.0 mi North 8.1 mph - N/A   Overcast
5:55 PM 54.1 °F - 51.6 °F 91% 30.19 in 10.0 mi North 8.1 mph - N/A   Overcast
6:15 PM 53.8 °F - 47.5 °F 79% 30.20 in 10.0 mi North 6.9 mph - N/A   Overcast
6:35 PM 53.8 °F - 46.6 °F 77% 30.21 in 10.0 mi North 4.6 mph - N/A   Overcast
6:55 PM 53.8 °F - 46.2 °F 76% 30.21 in 10.0 mi NNE 5.8 mph - N/A   Overcast
7:15 PM 53.8 °F - 45.5 °F 74% 30.22 in 10.0 mi North 5.8 mph - N/A   Overcast
7:55 PM 52.7 °F - 44.6 °F 74% 30.24 in 10.0 mi NNE 3.5 mph - N/A   Scattered Clouds
8:15 PM 51.8 °F - 44.6 °F 76% 30.24 in 10.0 mi Calm Calm - N/A   Clear
8:35 PM 50.5 °F - 44.4 °F 80% 30.23 in 10.0 mi North 3.5 mph - N/A   Clear
8:55 PM 50.4 °F - 44.4 °F 80% 30.24 in 10.0 mi Calm Calm - N/A   Clear
9:15 PM 49.8 °F - 44.1 °F 81% 30.24 in 10.0 mi Calm Calm - N/A   Clear
9:35 PM 46.9 °F - 42.8 °F 86% 30.25 in 10.0 mi Calm Calm - N/A   Clear
9:55 PM 47.5 °F - 43.5 °F 86% 30.26 in 10.0 mi NNW 3.5 mph - N/A   Clear
10:15 PM 47.7 °F - 43.9 °F 87% 30.26 in 10.0 mi Calm Calm - N/A   Clear
10:35 PM 46.6 °F - 45.1 °F 95% 30.26 in 10.0 mi Calm Calm - N/A   Clear
10:55 PM 44.6 °F - 44.6 °F 100% 30.27 in 10.0 mi Calm Calm - N/A   Clear
11:15 PM 43.5 °F 40.9 °F 43.5 °F 100% 30.28 in 5.0 mi NNW 4.6 mph - N/A   Clear
11:35 PM 45.0 °F 43.5 °F 45.0 °F 100% 30.27 in 10.0 mi North 3.5 mph - N/A   Clear
11:55 PM 45.5 °F 44.2 °F 45.5 °F 100% 30.27 in 10.0 mi North 3.5 mph - N/A   Clear